User: anonymous   Login
Location: Nelson
(41.2830°S, 173.2830°E)
Time: 12:32:51
(UTC+12:00)
Language:

Cosmos 2292 Rocket - Orbit

View from above orbital plane
View from above orbital plane
View from above satellite
View from above satellite

Ground track
Ground track

The orbit data is extracted from the following two-line orbital elements,

1 23279U 94061B   21213.84884883  .00000844  00000-0  55811-4 0  9993
2 23279  82.9669 265.8146 0729572 284.3465  67.7828 13.94402269334896
Epoch (UTC): 01 August 2021 20:22:20
Eccentricity: 0.0729572
inclination: 82.9669°
perigee height: 381 km
apogee height: 1445 km
right ascension of ascending node: 265.8146°
argument of perigee: 284.3465°
revolutions per day: 13.94402269
mean anomaly at epoch: 67.7828°
orbit number at epoch: 33489

The dashed part of the orbit path shows where the satellite is in the earth's shadow,  

DLR